FENTRESS NALF, VA

11:50 PM EDT on May 29, 2017 (GMT -0400)
Fentress Naval Air Landing Field

Weather History for KNFE - February, 2014

Change the Weather History Date:

Friday, February 14, 2014

  Actual Average (KNTU) Record (KNTU)
Temperature  
Mean Temperature 51 °F -  
Max Temperature 63 °F 50 °F 70 °F (2011)
Min Temperature 39 °F 33 °F 19 °F (2015)
Degree Days  
Heating Degree Days 14    
Growing Degree Days 1 (Base 50)    
Moisture  
Dew Point 29 °F    
Average Humidity 50    
Maximum Humidity 93    
Minimum Humidity 23    
Precipitation  
Precipitation 0.00 in - - ()
Sea Level Pressure  
Sea Level Pressure 29.69 in    
Wind  
Wind Speed 7 mph (SW)    
Max Wind Speed 12 mph    
Max Gust Speed 29 mph    
Visibility 10 miles    
Events      
Averages and records for this station are not official NWS values.
T = Trace of Precipitation, MM = Missing Value Source: NWS Daily Summary

Daily Weather History Graph

Daily Weather History Graph

Search for Another Location

Airport or City:

Trip Planner

Search our weather history database for the weather conditions in past years. The results will help you decide how hot, cold, wet, or windy it might be!

Date:

Astronomy

Feb. 14, 2014 Rise Set
Actual Time 6:53 AM EST 5:44 PM EST
Civil Twilight 6:27 AM EST 6:10 PM EST
Nautical Twilight 5:57 AM EST 6:40 PM EST
Astronomical Twilight 5:27 AM EST 7:11 PM EST
Moon 5:44 PM EST (2/14) 6:20 AM EST (2/14)
Length of Visible Light 11h 43m
Length of Day
10h 50m
Full, 100% of the Moon is Illuminated
Feb 14
Full
Feb 14
Full
Feb 22
Last Quarter
Mar 1
New
Mar 8
First Quarter

Hourly Weather History & Observations

Time (EST) Temp. Windchill Dew Point Humidity Pressure Visibility Wind Dir Wind Speed Gust Speed Precip Events Conditions
12:08 AM 39.9 °F 33.9 °F 37.9 °F 93% 29.48 in 10.0 mi WSW 9.2 mph - N/A   Overcast
12:37 AM 39.9 °F 34.5 °F 37.0 °F 89% 29.51 in 10.0 mi WSW 8.1 mph - N/A   Mostly Cloudy
12:56 AM 39.9 °F 34.5 °F 33.1 °F 77% 29.52 in 10.0 mi WSW 8.1 mph - N/A   Clear
1:56 AM 41.0 °F 35.2 °F 30.9 °F 67% 29.56 in 10.0 mi WSW 9.2 mph 17.3 mph N/A   Clear
2:56 AM 39.9 °F 35.1 °F 28.9 °F 65% 29.59 in 10.0 mi Variable 6.9 mph - N/A   Clear
3:56 AM 39.0 °F 34.0 °F 28.0 °F 65% 29.61 in 10.0 mi Variable 6.9 mph - N/A   Clear
4:56 AM 39.0 °F 36.8 °F 28.0 °F 65% 29.65 in 10.0 mi Variable 3.5 mph - N/A   Clear
5:56 AM 39.0 °F 34.8 °F 27.0 °F 62% 29.70 in 10.0 mi Variable 5.8 mph - N/A   Clear
6:56 AM 39.9 °F 37.8 °F 25.0 °F 55% 29.71 in 10.0 mi Variable 3.5 mph - N/A   Clear
7:56 AM 42.1 °F 38.4 °F 25.0 °F 51% 29.74 in 10.0 mi Variable 5.8 mph - N/A   Clear
8:56 AM 44.1 °F 40.8 °F 28.0 °F 53% 29.75 in 10.0 mi Variable 5.8 mph - N/A   Clear
9:56 AM 50.0 °F - 28.9 °F 44% 29.74 in 10.0 mi West 9.2 mph 19.6 mph N/A   Clear
10:56 AM 53.1 °F - 28.9 °F 40% 29.72 in 10.0 mi WSW 10.4 mph 16.1 mph N/A   Clear
11:56 AM 57.0 °F - 28.9 °F 34% 29.71 in 10.0 mi WSW 8.1 mph 18.4 mph N/A   Clear
12:56 PM 60.1 °F - 27.0 °F 28% 29.70 in 10.0 mi WSW 10.4 mph 28.8 mph N/A   Clear
1:56 PM 62.1 °F - 25.0 °F 24% 29.69 in 10.0 mi WSW 11.5 mph 17.3 mph N/A   Clear
2:56 PM 63.0 °F - 26.1 °F 25% 29.70 in 10.0 mi Variable 6.9 mph 18.4 mph N/A   Clear
3:56 PM 63.0 °F - 24.1 °F 23% 29.72 in 10.0 mi WSW 8.1 mph - N/A   Clear
4:56 PM 62.1 °F - 24.1 °F 23% 29.73 in 10.0 mi North - - N/A   Clear
5:56 PM 57.0 °F - 25.0 °F 29% 29.75 in 10.0 mi Variable 3.5 mph - N/A   Clear
6:56 PM 50.0 °F - 28.0 °F 43% 29.78 in 10.0 mi South 3.5 mph - N/A   Clear
7:56 PM 48.0 °F - 30.0 °F 50% 29.78 in 10.0 mi Calm Calm - N/A   Clear
8:56 PM 50.0 °F - 28.9 °F 44% 29.79 in 10.0 mi South 4.6 mph - N/A   Clear
9:56 PM 50.0 °F - 30.0 °F 46% 29.79 in 10.0 mi Variable 3.5 mph - N/A   Clear
10:56 PM 46.0 °F 44.8 °F 30.0 °F 54% 29.78 in 10.0 mi SSW 3.5 mph - N/A   Clear
11:56 PM 44.1 °F 42.5 °F 30.0 °F 58% 29.75 in 10.0 mi South 3.5 mph - N/A   Clear